This is the latest recevied weather packets stored in our database for station/object EA3FL-15. If no packets are shown the sender has not sent any weather packets the latest 10 day(s).
| Time | Temp. | Humidity | Pressure | Rain* | Wind** | Luminosity | Snow |
|---|---|---|---|---|---|---|---|
| 1777580692 | 18.33° C | 100% | 1021.5 hPa | - | - | - | - |
| 1777579792 | 18.33° C | 100% | 1021.3 hPa | - | - | - | - |
| 1777578892 | 18.33° C | 100% | 1021.4 hPa | - | - | - | - |
| 1777577992 | 18.33° C | 100% | 1021.2 hPa | - | - | - | - |
| 1777577092 | 18.33° C | 100% | 1021.2 hPa | - | - | - | - |
| 1777576193 | 18.33° C | 100% | 1020.9 hPa | - | - | - | - |
| 1777575292 | 18.33° C | 100% | 1020.8 hPa | - | - | - | - |
| 1777574393 | 18.33° C | 100% | 1020.7 hPa | - | - | - | - |
| 1777573492 | 18.89° C | 100% | 1020.5 hPa | - | - | - | - |
| 1777572592 | 19.44° C | 100% | 1020.3 hPa | - | - | - | - |
| 1777571692 | 20° C | 100% | 1020.1 hPa | - | - | - | - |
| 1777570792 | 20.56° C | 100% | 1020 hPa | - | - | - | - |
| 1777569892 | 21.11° C | 100% | 1020 hPa | - | - | - | - |
| 1777568992 | 21.11° C | 100% | 1019.9 hPa | - | - | - | - |
| 1777568092 | 21.11° C | 100% | 1020 hPa | - | - | - | - |
| 1777567192 | 21.67° C | 100% | 1020 hPa | - | - | - | - |
| 1777566292 | 22.22° C | 100% | 1019.9 hPa | - | - | - | - |
| 1777565392 | 22.22° C | 100% | 1020 hPa | - | - | - | - |
| 1777564492 | 21.11° C | 100% | 1020 hPa | - | - | - | - |
| 1777563592 | 21.11° C | 100% | 1020 hPa | - | - | - | - |
| 1777562692 | 20° C | 100% | 1020.1 hPa | - | - | - | - |
| 1777561788 | 21.11° C | 100% | 1019.9 hPa | - | - | - | - |
| 1777560888 | 21.11° C | 100% | 1019.8 hPa | - | - | - | - |
| 1777559992 | 20.56° C | 100% | 1020 hPa | - | - | - | - |
| 1777559098 | 20.56° C | 100% | 1020.1 hPa | - | - | - | - |
* Rain since midnight (hover to see other rain measurements)
** Current wind speed in m/s (hover to see current wind gust speed)